www.pogodaiklimat.ru

Погода и климат >> Архив погоды >> Австралия >> Западная Австралия >> Морава


ПОГОДА в Мораве

  • Прогноз погоды в Мораве
  • Монитор погоды в Мораве

АРХИВ ПОГОДЫ в Мораве

Время (UTC), дата Ветер
(напр.,м/с)
 
Видим.   Явления Облачность Т
(С)
Тd
(С)
f
(%)
Тe
(С)
Тes
(С)
Комфортность P
(гПа)
Po
(гПа)
Тmin
(С)
Tmax
(С)
R
(мм)
R24
(мм)
S
(см)
19 16.05 Ю 5 н/о н/о +8.3 +6.8 90 +4 +4 1023.7 991.7
21 16.05 Ю 4 н/о н/о +6.5 +5.8 95 +3 +3 1024.2 992.2
22 16.05 Ю 3 н/о н/о +5.5 +5.4 99 +2 +2 1024.5 992.5
00 17.05 ЮВ 6 н/о н/о +7.0 +5.0 87 +2 +2 1025.7 993.7
01 17.05 ЮВ 7 н/о н/о +9.4 +4.2 70 +6 +6 1026.2 994.1 +4.9
03 17.05 ЮВ 8 н/о н/о +13.0 +2.6 49 +10 +10 1025.2 993.2
04 17.05 ЮВ 7 н/о н/о +14.2 +1.5 42 +12 +12 1024.3 992.3
06 17.05 ЮВ 6 н/о н/о +15.1 +0.5 37 +14 +14 1022.6 990.7
07 17.05 ЮВ 6 н/о н/о +15.3 +0.7 37 +14 +14 1022.4 990.5
09 17.05 ЮВ 6 н/о н/о +13.9 +0.2 39 +12 +12 1022.8 990.9
10 17.05 ЮВ 4 н/о н/о +11.7 +0.2 45 +10 +10 1023.4 991.4
12 17.05 ЮВ 3 н/о н/о +8.4 -0.1 55 +6 +6 1024.8 992.8
13 17.05 ЮВ 3 н/о н/о +7.6 +0.3 60 +5 +5 1025.2 993.2 +16.1
15 17.05 В 3 н/о н/о +5.0 0.0 70 +2 +2 1024.6 992.6
16 17.05 В 2 н/о н/о +4.6 +0.2 73 +2 +2 1024.2 992.2
18 17.05 штиль 0 н/о н/о +2.5 -1.1 77 +2 +2 1023.9 991.9
19 17.05 Ю 2 н/о н/о +3.2 +0.4 82 +1 +1 1023.6 991.6
21 17.05 Ю 1 н/о н/о +1.8 +0.3 90 +1 +1 1023.2 991.2
22 17.05 штиль 0 н/о н/о +0.6 -0.8 90 -1 -1 1023.4 991.4
00 18.05 ЮВ 1 н/о н/о +5.2 +2.4 82 +5 +5 1025.1 993.1
01 18.05 В 3 н/о н/о +9.5 +3.5 66 +8 +8 1025.2 993.2 +0.1
03 18.05 В 4 н/о н/о +13.8 +0.1 39 +13 +13 1024.2 992.2
04 18.05 В 5 н/о н/о +15.2 -0.1 35 +14 +14 1022.6 990.7
06 18.05 В 4 н/о н/о +17.0 -1.1 29 +17 +17 1021.2 989.3
07 18.05 В 4 н/о н/о +17.3 -1.4 28 +17 +17 1021.1 989.2
09 18.05 В 4 н/о н/о +16.1 -0.2 33 +16 +16 1020.9 989.0
10 18.05 ЮВ 3 н/о н/о +12.4 -0.5 41 +12 +12 1021.5 989.6
12 18.05 ЮВ 3 н/о н/о +9.0 +0.7 56 +7 +7 1022.2 990.3
13 18.05 ЮВ 1 н/о н/о +8.2 +0.9 60 +8 +8 1022.6 990.7 +18.0
15 18.05 штиль 0 н/о н/о +5.7 -0.6 64 +5 +5 1022.2 990.3
16 18.05 В 1 н/о н/о +4.5 -1.1 67 +3 +3 1021.9 990.0
18 18.05 СВ 3 н/о н/о +5.1 -0.3 68 +2 +2 1021.2 989.3
19 18.05 СВ 3 н/о н/о +5.0 -0.4 68 +2 +2 1021.0 989.1
21 18.05 СВ 4 н/о н/о +5.2 -0.4 67 +2 +2 1020.1 988.2
22 18.05 СВ 3 н/о н/о +4.0 -1.0 70 +1 +1 1020.2 988.3
00 19.05 СВ 2 н/о н/о +6.9 -0.3 60 +5 +5 1021.1 989.2
01 19.05 СВ 5 н/о н/о +11.2 -0.6 44 +9 +9 1020.9 989.0 +3.4
03 19.05 С 5 н/о н/о +18.6 -1.3 26 +18 +18 1019.5 987.7
04 19.05 С 5 н/о н/о +20.2 -1.6 23 +20 +20 1018.4 986.6
06 19.05 С 4 н/о н/о +24.2 -4.0 15 +22 +22 комфорт 1016.1 984.4
07 19.05 С 4 н/о н/о +24.4 -6.8 12 +22 +22 комфорт 1015.7 984.0
09 19.05 С 2 н/о н/о +23.8 -9.6 10 +21 +21 комфорт 1015.2 983.5
10 19.05 С 2 н/о н/о +20.6 -4.5 18 +21 +21 комфорт 1015.4 983.7
12 19.05 С 3 н/о н/о +14.3 -7.7 21 +14 +14 1015.8 984.1
13 19.05 З 2 н/о н/о +14.4 -3.4 29 +15 +15 1016.7 984.9 +25.2
15 19.05 ЮВ 1 н/о н/о +9.8 -2.5 42 +11 +11 1016.9 985.1
16 19.05 СЗ 2 н/о н/о +8.8 +1.0 58 +8 +8 1016.6 984.8
18 19.05 С 2 н/о н/о +8.7 +2.7 66 +7 +7 1015.7 984.0
19 19.05 С 2 н/о н/о +8.8 +4.6 75 +8 +8 1015.4 983.7
21 19.05 СЗ 2 н/о н/о +10.0 +7.1 82 +8 +8 1016.6 984.8
22 19.05 С 3 н/о н/о +11.6 +8.3 80 +10 +10 1016.6 984.8
00 20.05 С 3 н/о н/о +12.9 +8.8 76 +12 +12 1018.0 986.2
01 20.05 С 3 н/о н/о +14.4 +9.4 72 +14 +14 1018.7 986.9 +6.9
03 20.05 З 5 н/о н/о +21.3 +14.0 63 +24 +24 комфорт 1018.7 986.9
04 20.05 З 4 н/о н/о +22.3 +13.4 57 +25 +25 комфорт 1018.0 986.2
06 20.05 З 5 н/о н/о +21.0 +15.5 71 +24 +24 комфорт 1017.7 985.9
07 20.05 ЮЗ 5 н/о н/о +19.4 +17.7 90 +21 +21 комфорт 1018.1 986.3
09 20.05 ЮЗ 3 н/о н/о +19.6 +15.7 78 +22 +22 комфорт 1019.0 987.2
10 20.05 Ю 4 н/о н/о +18.1 +15.4 84 +18 +18 1019.8 987.9
12 20.05 Ю 3 н/о н/о +15.7 +15.7 100 +15 +15 1020.7 988.8
13 20.05 Ю 2 н/о н/о +15.3 +15.3 100 +15 +15 1021.1 989.2 +23.5
15 20.05 Ю 1 н/о н/о +15.0 +14.7 98 +16 +16 1021.4 989.5
16 20.05 штиль 0 н/о н/о +15.1 +14.9 99 +15 +15 1021.5 989.6
18 20.05 З 1 н/о н/о +14.5 +14.5 100 +15 +15 1021.1 989.2
19 20.05 СВ 1 н/о н/о +15.1 +14.9 99 +16 +16 1021.2 989.3
21 20.05 ЮЗ 2 н/о н/о +13.3 +13.3 100 +12 +12 1021.4 989.5
22 20.05 ЮЗ 1 н/о н/о +12.1 +12.1 100 +12 +12 1022.0 990.1
00 21.05 ЮЗ 2 н/о н/о +11.8 +11.8 100 +11 +11 1023.5 991.5
01 21.05 Ю 2 н/о н/о +14.8 +11.9 83 +14 +14 1024.0 992.0 +11.0
03 21.05 ЮВ 3 н/о н/о +18.5 +9.0 54 +19 +19 1023.3 991.3
04 21.05 В 2 н/о н/о +19.4 +9.0 51 +21 +21 комфорт 1022.4 990.5
06 21.05 ЮЗ 2 н/о н/о +21.7 +9.3 45 +23 +23 комфорт 1020.9 989.0
07 21.05 СВ 1 н/о н/о +21.5 +9.7 47 +23 +23 комфорт 1020.9 989.0
09 21.05 В 1 н/о н/о +21.5 +10.0 48 +23 +23 комфорт 1020.8 988.9
10 21.05 В 1 н/о н/о +18.3 +9.6 57 +20 +20 1021.1 989.2
12 21.05 Ю 2 н/о н/о +15.8 +7.1 56 +16 +16 1021.9 990.0
13 21.05 Ю 2 н/о н/о +13.9 +7.0 63 +14 +14 1022.1 990.2 +22.5
15 21.05 ЮВ 3 н/о н/о +12.4 +6.7 68 +11 +11 1022.1 990.2
16 21.05 Ю 2 н/о н/о +11.8 +6.3 69 +11 +11 1022.3 990.4
18 21.05 Ю 1 н/о н/о +10.8 +5.8 71 +11 +11 1022.2 990.3
19 21.05 ЮВ 2 н/о н/о +10.5 +6.1 74 +9 +9 1021.7 989.8
21 21.05 штиль 0 н/о н/о +9.9 +5.9 76 +9 +9 1021.7 989.8
22 21.05 ЮВ 1 н/о н/о +9.6 +5.8 77 +10 +10 1021.7 989.8
00 22.05 штиль 0 н/о н/о +11.1 +6.6 74 +11 +11 1022.1 990.2
01 22.05 СВ 2 н/о н/о +16.2 +8.2 59 +16 +16 1022.4 990.5 +8.2
03 22.05 С 2 н/о н/о +22.4 +9.6 44 +24 +24 комфорт 1021.3 989.4
04 22.05 СЗ 1 н/о н/о +25.7 +10.3 38 +27 +27 жарко 1020.3 988.4
06 22.05 С 4 н/о н/о +27.7 +7.5 28 +27 +27 жарко 1018.2 986.4
07 22.05 С 4 н/о н/о +28.6 +8.3 28 +28 +28 жарко 1017.8 986.0
09 22.05 З 5 н/о н/о +24.7 +10.2 40 +26 +26 жарко 1019.0 987.2
10 22.05 З 3 н/о н/о +21.8 +10.3 48 +24 +24 комфорт 1019.6 987.8
12 22.05 ЮЗ 3 н/о н/о +18.0 +11.1 64 +18 +18 1021.2 989.3
13 22.05 ЮЗ 3 н/о н/о +16.0 +10.3 69 +16 +16 1021.9 990.0 +29.0
15 22.05 Ю 2 н/о н/о +13.2 +8.5 73 +13 +13 1022.5 990.6
16 22.05 ЮЗ 1 н/о н/о +12.1 +8.0 76 +12 +12 1022.8 990.9
18 22.05 штиль 0 н/о н/о +10.5 +6.8 78 +10 +10 1022.7 990.8
19 22.05 З 2 н/о н/о +9.9 +7.2 83 +9 +9 1022.4 990.5
21 22.05 штиль 0 н/о н/о +8.4 +6.4 87 +8 +8 1022.6 990.7
22 22.05 ЮЗ 1 н/о н/о +9.3 +6.9 85 +9 +9 1023.1 991.1
00 23.05 Ю 2 н/о н/о +11.0 +7.1 77 +10 +10 1024.2 992.2
01 23.05 ЮВ 2 н/о н/о +14.7 +7.5 62 +14 +14 1024.5 992.5 +8.3
03 23.05 ЮВ 3 н/о н/о +20.1 +8.1 46 +22 +22 комфорт 1024.4 992.4
04 23.05 В 2 н/о н/о +20.6 +7.9 44 +22 +22 комфорт 1023.4 991.4
06 23.05 ЮВ 1 н/о н/о +23.8 +7.8 36 +24 +24 комфорт 1021.8 989.9
07 23.05 В 2 н/о н/о +24.2 +7.4 34 +24 +24 комфорт 1021.9 990.0
09 23.05 ЮВ 4 н/о н/о +22.8 +7.4 37 +24 +24 комфорт 1022.3 990.4
10 23.05 ЮВ 3 н/о н/о +20.1 +7.8 45 +22 +22 комфорт 1022.6 990.7
12 23.05 ЮВ 1 н/о н/о +17.1 +7.2 52 +18 +18 1023.6 991.6
13 23.05 Ю 1 н/о н/о +15.9 +6.9 55 +17 +17 1023.6 991.6 +24.9
15 23.05 штиль 0 н/о н/о +15.2 +7.0 58 +15 +15 1023.3 991.3
16 23.05 Ю 2 н/о н/о +15.1 +7.2 59 +15 +15 1023.3 991.3
18 23.05 Ю 2 н/о н/о +14.7 +7.0 60 +15 +15 1022.7 990.8

 

Местоположение метеостанции Морава (Западная Австралия, Австралия): широта -29.20 долгота 116.02 высота над уровнем моря 272 м.

В архиве по умолчанию представлена погода в Мораве за последнюю неделю. Архивные данные за месяц целиком и за предыдущие месяцы, начиная с января 2011 года, Вы можете получить, выбрав интересующий диапазон дат из раскрывающегося списка и нажав кнопку "Ввод!".


*Определитесь, кто Вы:
робот инопланетянин человек

Внимание! Время в таблицах - всемирное. Для получения местного времени необходимо прибавить поправку, которая равна 8 ч.

Смотрите также архив погоды в соседних городах и на ближайших метеорологических станциях:

Погода в Баджингарре (Западная Австралия, Австралия) (134 км)
Погода в Дауоллину (Западная Австралия, Австралия) (136 км)
Погода в Джеральдтоне (Западная Австралия, Австралия) (136 км)
Погода в Маунт Магнет аэропорту (Западная Австралия, Австралия) (214 км)
Погода в Гингине (Западная Австралия, Австралия) (253 км)
Погода в Буллсбрук Пирс (Западная Австралия, Австралия) (275 км)
Погода в Ошен Риф (Западная Австралия, Австралия) (286 км)
Погода в Кандердине (Западная Австралия, Австралия) (293 км)
Погода в Перт Монт-Лоули (Западная Австралия, Австралия) (303 км)
Погода в Перте (Западная Австралия, Австралия) (304 км)

Пояснения к столбцам:

Ветер - указаны скорость ветра в м/с - средняя за 10 мин, порывы в срок и между сроками (в фигурных скобках) и направление, откуда дует ветер: С - северный, СВ - северо-восточный, В - восточный, ЮВ - юго-восточный, Ю - южный, ЮЗ - юго-западный, З - западный, СЗ - северо-западный.
Видимость - горизонтальная дальность видимости в метрах или километрах. При видимости от 1 до 10 км при отсутствии осадков обычно наблюдается дымка, при ухудшении видимости до 1 км и менее - туман. В сухую погоду видимость может ухудшаться дымом, пылью или мглою.
Явления - указаны атмосферные явления, наблюдавшиеся в срок или в последний час перед сроком; фигурными скобками обозначены явления, наблюдавшиеся между сроками (за 1-3 часа до срока); квадратными скобками обозначены град или гололедные отложения с указанием их диаметра в мм.
Облачность - указаны через наклонную черту общая и нижняя облачность в баллах и высота нижней границы облаков в метрах; квадратными скобками обозначены формы облаков: Ci - перистые, Cs - перисто-слоистые, Cc - перисто-кучевые, Ac - высококучевые, As - высокослоистые, Sc - слоисто-кучевые, Ns - слоисто-дождевые, Cu - кучевые, Cb - кучево-дождевые. Подробнее классификацию облаков см. в Атласе облаков (PDF).
T - Температура воздуха - температура, измеренная на высоте 2 м над землей.
Td - Температура точки росы - температура, при понижении до которой содержащийся в воздухе водяной пар достигнет насыщения.
f - Относительная влажность воздуха - влажноcть воздуха, измеренная на высоте 2 м над землей.
Te - Эффективная температура - температура, которую ощущает одетый по сезону человек в тени. Характеристика душности погоды. При расчете учитывается влияние влажности воздуха и скорости ветра на теплоощущения человека.
Tes - Эффективная температура на солнце - температура, которую ощущает человек, с поправкой на солнечный нагрев. Характеристика знойности погоды. Зависит от высоты солнца над горизонтом, облачности и скорости ветра. Ночью, в пасмурную погоду, а также при ветре 12 м/с и более поправка равна нулю.
P - Атмосферное давление - приведенное к уровню моря атмосферное давление.
Po - Атмосферное давление - измеренное на уровне метеостанции атмосферное давление.
Tmin - Минимальная температура - минимум температуры воздуха на высоте 2 м над землей.
Tmax - Максимальная температура - максимум температуры воздуха на высоте 2 м над землей.
R - Количество осадков - Количество выпавших осадков за период времени, мм. При наведении курсора мыши на число - период времени, за который выпало указанное количество осадков.
R24 - Количество осадков - Количество выпавших осадков за 24 часа, мм.
S - Снежный покров - Высота снежного покрова, см. При наведении курсора мыши на число - состояние снежного покрова и степень покрытия местности в баллах.